Home   Weather   Cocos Islands   Bantam   Past weeks
Flag for Cocos Islands

Past Weather in Bantam, Cocos Islands — Yesterday and Last 2 Weeks

Currently: 82 °F. Passing clouds. (Weather station: Cocos Island Airport, Cocos Islands). See more current weather

Past Weather in Bantam — Graph

°F

Bantam Temperature Yesterday

Maximum temperature yesterday: 86 °F (at 10:00 am)
Minimum temperature yesterday: 82 °F (at 12:00 am)
Average temperature yesterday: 84 °F

High & Low Weather Summary for the Past Weeks

 TemperatureHumidityPressure
High86 °F (May 3, 2:00 pm)100% (May 2, 2:47 am)29.92 "Hg (May 2, 2:47 am)
Low75 °F (May 8, 9:30 pm)66% (May 13, 10:30 am)29.74 "Hg (May 3, 2:30 pm)
Average82 °F84%29.82 "Hg
* Reported May 1 6:30 pm — May 16 6:30 pm, Bantam. Weather by CustomWeather, © 2021

Note: Actual official high and low records may vary slightly from our data, if they occured in-between our weather recording intervals... More about our weather records

Bantam Weather History for the Previous 24 Hours

Scroll right to see more
 ConditionsComfort  
Time TempWeatherWind HumidityBarometerVisibility
6:30 pm
Sun, May 16
82 °FSunny.13 mph79%29.83 "HgN/A
6:00 pm82 °FScattered clouds.10 mph79%29.83 "HgN/A
5:30 pm84 °FBroken clouds.10 mph79%29.83 "HgN/A
5:00 pm84 °FScattered clouds.15 mph79%29.80 "HgN/A
4:30 pm84 °FBroken clouds.14 mph74%29.80 "HgN/A
4:00 pm84 °FScattered clouds.15 mph79%29.80 "HgN/A
3:30 pm84 °FScattered clouds.15 mph79%29.80 "HgN/A
3:00 pm86 °FScattered clouds.15 mph75%29.80 "HgN/A
2:30 pm84 °FScattered clouds.17 mph79%29.80 "HgN/A
2:00 pm84 °FPartly sunny.18 mph79%29.80 "HgN/A
1:30 pm86 °FBroken clouds.17 mph75%29.80 "HgN/A
1:00 pm86 °FScattered clouds.16 mph75%29.83 "HgN/A
12:30 pm84 °FScattered clouds.18 mph74%29.83 "HgN/A
12:00 pm84 °FBroken clouds.17 mph74%29.83 "HgN/A
11:30 am84 °FScattered clouds.16 mph74%29.86 "HgN/A
11:00 am84 °FBroken clouds.18 mph74%29.86 "HgN/A
10:30 am84 °FPartly sunny.16 mph79%29.86 "HgN/A
10:00 am84 °FScattered clouds.16 mph74%29.86 "HgN/A
9:30 am84 °FScattered clouds.17 mph74%29.89 "HgN/A
9:00 am84 °FSunny.17 mph74%29.89 "HgN/A
8:30 am82 °FScattered clouds.16 mph79%29.86 "HgN/A
8:00 am82 °FBroken clouds.15 mph79%29.86 "HgN/A
7:30 am82 °FScattered clouds.15 mph79%29.86 "HgN/A
7:00 am82 °FPassing clouds.13 mph79%29.86 "HgN/A
6:30 am82 °FPassing clouds.12 mph79%29.86 "HgN/A
6:00 am82 °FPassing clouds.9 mph79%29.83 "HgN/A
5:30 am82 °FPassing clouds.12 mph79%29.83 "HgN/A
5:00 am82 °FPassing clouds.10 mph74%29.83 "HgN/A
4:30 am81 °FPassing clouds.9 mph79%29.80 "HgN/A
4:00 am82 °FPassing clouds.8 mph79%29.83 "HgN/A
3:30 am82 °FPartly cloudy.12 mph74%29.83 "HgN/A
3:00 am81 °FPassing clouds.8 mph79%29.83 "HgN/A
2:30 am82 °FPassing clouds.8 mph79%29.83 "HgN/A
2:00 am81 °FPassing clouds.7 mph84%29.83 "HgN/A
1:30 am81 °FClear.10 mph79%29.83 "HgN/A
1:00 am82 °FClear.10 mph79%29.83 "HgN/A
12:30 am82 °FPassing clouds.9 mph74%29.83 "HgN/A
12:00 am82 °FPassing clouds.9 mph79%29.83 "HgN/A
11:30 pm
Sat, May 15
82 °FPassing clouds.9 mph79%29.83 "HgN/A
11:00 pm82 °FPassing clouds.13 mph79%29.86 "HgN/A
10:30 pm82 °FPassing clouds.9 mph79%29.86 "HgN/A
10:00 pm82 °FPassing clouds.9 mph79%29.86 "HgN/A
9:30 pm82 °FPassing clouds.8 mph79%29.86 "HgN/A
9:00 pm82 °FPassing clouds.8 mph79%29.86 "HgN/A
8:30 pm82 °FPassing clouds.9 mph79%29.83 "HgN/A
8:00 pm82 °FPassing clouds.9 mph79%29.83 "HgN/A
7:30 pm82 °FClear.9 mph79%29.83 "HgN/A
7:00 pm82 °FPassing clouds.8 mph79%29.80 "HgN/A
Weather by CustomWeather, © 2021

See weather overview